Hauptseite
METAR-TAF:

METAR-TAF

Flughäfen :

RAF Boulmer

Boulmer, England

Breite: 55-25-19N, Länge: 1-36-12W, Höhe: 24 m

Beobachtung

Neuester Wetterbericht von vor 18 Minuten, um 10:50 UTC
Wind 11 kt aus Südost
Temperatur 14°C
Luftfeuchtigkeit 72%
Luftdruck 1019 hPa
Sichtweite: 7000 m
trockener Dunst

METAR: EGQM 211050Z AUTO 14011KT 7000 HZ NCD 14/09 Q1019

Zeit: 12:08 (11:08 UTC)


TAF: fehlend

Wetterbeobachtungen und Prognosen von mehr als 4000 Flughäfen (METAR und TAF Bericht).

Die verfügbaren Stationen werden durch gelbe und rote Markierungen auf der Karte dargestellt.

Führen Sie die Maus auf sie, um den Namen der Station zu sehen.

Darauf klicken, um die Beobachtung von Wetterbeobachtungen und Prognosen zu sehen.

Um die Karte zu ändern : klicken Sie auf den grünen Tasten mit einem schwarzen Kreuz Zum Vergrößern, auf den grünen Button mit einem Gedankenstrich zu verkleinern, oder auf die grünen Pfeile für benachbarte Karten.


METAR-TAF: